• în România
  • Lista ţărilor
  • Pe 7 zile
  • Temperatura apei
  • Hartă satelitară
  • Meteo pe hartă
  • Widget-uri
  • user-avatar
    Intrare

    Meteo pe oră la Vinkovcy

    Astăzi, 23 Septembrie, Duminică

    Timp Temperatura Precipitaţii Vânt Presiune Umiditate
    00:00 +12°C° 0 mm 0 m/s 759 mmHg 64%
    01:00 +12°C° 0 mm 0 m/s 759 mmHg 69%
    02:00 +11°C° 0 mm 0 m/s 759 mmHg 69%
    03:00 +11°C° 0 mm 0 m/s 759 mmHg 69%
    04:00 +12°C° 0 mm 1 m/s 759 mmHg 70%
    05:00 +13°C° 0 mm 1 m/s 759 mmHg 66%
    06:00 +14°C° 0 mm 1 m/s 759 mmHg 63%
    07:00 +15°C° 0 mm 1 m/s 759 mmHg 60%
    08:00 +18°C° 0 mm 1 m/s 759 mmHg 53%
    09:00 +19°C° 0 mm 2 m/s 759 mmHg 47%
    10:00 +21°C° 0 mm 2 m/s 759 mmHg 41%
    11:00 +24°C° 0 mm 2 m/s 758 mmHg 39%
    12:00 +26°C° 0 mm 2 m/s 757 mmHg 38%
    13:00 +28°C° 0 mm 2 m/s 757 mmHg 37%
    14:00 +28°C° 0 mm 2 m/s 756 mmHg 37%
    15:00 +29°C° 0 mm 2 m/s 756 mmHg 38%
    16:00 +29°C° 0 mm 2 m/s 755 mmHg 38%
    17:00 +27°C° 0 mm 2 m/s 754 mmHg 44%
    18:00 +25°C° 0 mm 2 m/s 754 mmHg 50%
    19:00 +23°C° 0 mm 2 m/s 754 mmHg 55%
    20:00 +22°C° 0 mm 3 m/s 753 mmHg 58%
    21:00 +21°C° 0 mm 3 m/s 753 mmHg 60%
    22:00 +21°C° 0 mm 3 m/s 752 mmHg 62%
    23:00 +20°C° 0 mm 3 m/s 752 mmHg 66%

    Mâine, 24 Septembrie, Luni

    Timp Temperatura Precipitaţii Vânt Presiune Umiditate
    00:00 +20°C° 0 mm 3 m/s 751 mmHg 69%
    01:00 +20°C° 0 mm 3 m/s 750 mmHg 72%
    02:00 +20°C° 0 mm 3 m/s 751 mmHg 73%
    03:00 +19°C° 0 mm 3 m/s 751 mmHg 75%
    04:00 +19°C° 0 mm 2 m/s 751 mmHg 76%
    05:00 +18°C° 1.1 mm 4 m/s 753 mmHg 76%
    06:00 +16°C° 1.1 mm 6 m/s 754 mmHg 75%
    07:00 +15°C° 1.1 mm 8 m/s 756 mmHg 75%
    08:00 +14°C° 0.3 mm 7 m/s 758 mmHg 76%
    09:00 +13°C° 0.3 mm 6 m/s 760 mmHg 77%
    10:00 +12°C° 0.3 mm 5 m/s 762 mmHg 79%
    11:00 +12°C° 0.1 mm 4 m/s 762 mmHg 76%
    12:00 +12°C° 0.1 mm 4 m/s 762 mmHg 74%
    13:00 +12°C° 0.1 mm 3 m/s 763 mmHg 72%
    14:00 +13°C° 0 mm 3 m/s 763 mmHg 69%
    15:00 +13°C° 0 mm 3 m/s 763 mmHg 66%
    16:00 +13°C° 0 mm 3 m/s 762 mmHg 64%
    17:00 +12°C° 0 mm 3 m/s 763 mmHg 66%
    18:00 +11°C° 0 mm 3 m/s 763 mmHg 68%
    19:00 +10°C° 0 mm 3 m/s 764 mmHg 70%
    20:00 +10°C° 0 mm 3 m/s 764 mmHg 68%
    21:00 +9°C° 0 mm 2 m/s 765 mmHg 67%
    22:00 +9°C° 0 mm 2 m/s 765 mmHg 66%
    23:00 +8°C° 0 mm 2 m/s 765 mmHg 66%

    Poimâine, 25 Septembrie, Marţi

    Timp Temperatura Precipitaţii Vânt Presiune Umiditate
    00:00 +8°C° 0 mm 2 m/s 766 mmHg 66%
    01:00 +8°C° 0 mm 2 m/s 766 mmHg 65%
    02:00 +7°C° 0 mm 2 m/s 766 mmHg 66%
    03:00 +7°C° 0 mm 2 m/s 766 mmHg 67%
    04:00 +6°C° 0 mm 2 m/s 767 mmHg 68%
    05:00 +7°C° 0 mm 2 m/s 767 mmHg 66%
    06:00 +8°C° 0 mm 3 m/s 767 mmHg 63%
    07:00 +9°C° 0 mm 3 m/s 768 mmHg 61%
    08:00 +11°C° 0 mm 3 m/s 768 mmHg 52%
    09:00 +13°C° 0 mm 4 m/s 768 mmHg 43%
    10:00 +15°C° 0 mm 4 m/s 768 mmHg 34%
    11:00 +16°C° 0 mm 5 m/s 767 mmHg 31%
    12:00 +16°C° 0 mm 5 m/s 767 mmHg 28%
    13:00 +17°C° 0 mm 5 m/s 767 mmHg 25%
    14:00 +17°C° 0 mm 5 m/s 767 mmHg 25%
    15:00 +16°C° 0 mm 5 m/s 767 mmHg 25%
    16:00 +16°C° 0 mm 5 m/s 766 mmHg 25%
    17:00 +14°C° 0 mm 4 m/s 767 mmHg 30%
    18:00 +12°C° 0 mm 3 m/s 768 mmHg 35%
    19:00 +10°C° 0 mm 2 m/s 768 mmHg 39%
    20:00 +9°C° 0 mm 2 m/s 769 mmHg 43%
    21:00 +9°C° 0 mm 2 m/s 769 mmHg 46%
    22:00 +8°C° 0 mm 2 m/s 769 mmHg 49%
    23:00 +7°C° 0 mm 2 m/s 769 mmHg 52%

    26 Septembrie, Miercuri

    Timp Temperatura Precipitaţii Vânt Presiune Umiditate
    00:00 +8°C° 0 mm 1 m/s 770 mmHg 55%
    01:00 +7°C° 0 mm 1 m/s 770 mmHg 58%
    02:00 +7°C° 0 mm 1 m/s 770 mmHg 59%
    03:00 +6°C° 0 mm 1 m/s 770 mmHg 61%
    04:00 +6°C° 0 mm 1 m/s 770 mmHg 62%
    05:00 +7°C° 0 mm 1 m/s 770 mmHg 59%
    06:00 +8°C° 0 mm 1 m/s 770 mmHg 56%
    07:00 +8°C° 0 mm 0 m/s 770 mmHg 53%
    08:00 +11°C° 0 mm 1 m/s 770 mmHg 46%
    09:00 +13°C° 0 mm 1 m/s 770 mmHg 40%
    10:00 +16°C° 0 mm 2 m/s 770 mmHg 33%
    11:00 +17°C° 0 mm 2 m/s 770 mmHg 30%
    12:00 +18°C° 0 mm 2 m/s 769 mmHg 28%
    13:00 +19°C° 0 mm 2 m/s 769 mmHg 25%
    14:00 +19°C° 0 mm 2 m/s 768 mmHg 25%
    15:00 +19°C° 0 mm 2 m/s 768 mmHg 25%
    16:00 +19°C° 0 mm 2 m/s 767 mmHg 24%
    17:00 +16°C° 0 mm 2 m/s 767 mmHg 29%
    18:00 +14°C° 0 mm 2 m/s 768 mmHg 33%
    19:00 +12°C° 0 mm 2 m/s 768 mmHg 38%
    20:00 +10°C° 0 mm 2 m/s 768 mmHg 39%
    21:00 +9°C° 0 mm 2 m/s 768 mmHg 41%
    22:00 +9°C° 0 mm 2 m/s 768 mmHg 43%
    23:00 +8°C° 0 mm 2 m/s 768 mmHg 44%

    27 Septembrie, Joi

    Timp Temperatura Precipitaţii Vânt Presiune Umiditate
    00:00 +8°C° 0 mm 2 m/s 767 mmHg 45%
    01:00 +8°C° 0 mm 1 m/s 767 mmHg 46%
    02:00 +8°C° 0 mm 1 m/s 767 mmHg 47%
    03:00 +8°C° 0 mm 1 m/s 767 mmHg 48%
    04:00 +7°C° 0 mm 1 m/s 766 mmHg 49%
    05:00 +8°C° 0 mm 1 m/s 766 mmHg 47%
    06:00 +9°C° 0 mm 1 m/s 766 mmHg 45%
    07:00 +10°C° 0 mm 1 m/s 766 mmHg 43%
    08:00 +13°C° 0 mm 1 m/s 766 mmHg 37%
    09:00 +15°C° 0 mm 1 m/s 766 mmHg 31%
    10:00 +19°C° 0 mm 1 m/s 766 mmHg 25%
    11:00 +21°C° 0 mm 1 m/s 765 mmHg 23%
    12:00 +22°C° 0 mm 1 m/s 765 mmHg 20%
    13:00 +24°C° 0 mm 1 m/s 764 mmHg 18%
    14:00 +24°C° 0 mm 1 m/s 764 mmHg 18%
    15:00 +23°C° 0 mm 1 m/s 763 mmHg 18%
    16:00 +23°C° 0 mm 1 m/s 763 mmHg 18%
    17:00 +21°C° 0 mm 1 m/s 763 mmHg 21%
    18:00 +18°C° 0 mm 1 m/s 763 mmHg 24%
    19:00 +14°C° 0 mm 0 m/s 763 mmHg 27%
    20:00 +14°C° 0 mm 1 m/s 763 mmHg 29%
    21:00 +14°C° 0 mm 1 m/s 763 mmHg 30%
    22:00 +13°C° 0 mm 1 m/s 763 mmHg 31%
    23:00 +13°C° 0 mm 1 m/s 763 mmHg 32%

    28 Septembrie, Vineri

    Timp Temperatura Precipitaţii Vânt Presiune Umiditate
    00:00 +12°C° 0 mm 1 m/s 762 mmHg 33%
    01:00 +12°C° 0 mm 1 m/s 762 mmHg 34%
    02:00 +11°C° 0 mm 1 m/s 762 mmHg 35%
    03:00 +11°C° 0 mm 1 m/s 762 mmHg 36%
    04:00 +11°C° 0 mm 1 m/s 761 mmHg 37%
    05:00 +12°C° 0 mm 1 m/s 761 mmHg 36%
    06:00 +12°C° 0 mm 1 m/s 761 mmHg 35%
    07:00 +13°C° 0 mm 1 m/s 761 mmHg 34%
    08:00 +16°C° 0 mm 1 m/s 761 mmHg 29%
    09:00 +20°C° 0 mm 1 m/s 761 mmHg 25%
    10:00 +23°C° 0 mm 1 m/s 760 mmHg 20%
    11:00 +24°C° 0 mm 1 m/s 760 mmHg 19%
    12:00 +25°C° 0 mm 2 m/s 759 mmHg 18%
    13:00 +26°C° 0 mm 2 m/s 759 mmHg 17%
    14:00 +26°C° 0 mm 2 m/s 758 mmHg 18%
    15:00 +26°C° 0 mm 2 m/s 758 mmHg 19%
    16:00 +26°C° 0 mm 2 m/s 757 mmHg 20%
    17:00 +24°C° 0 mm 2 m/s 758 mmHg 24%
    18:00 +20°C° 0 mm 2 m/s 758 mmHg 28%
    19:00 +19°C° 0 mm 1 m/s 758 mmHg 32%
    20:00 +18°C° 0 mm 1 m/s 758 mmHg 34%
    21:00 +18°C° 0 mm 1 m/s 758 mmHg 36%
    22:00 +16°C° 0 mm 1 m/s 758 mmHg 38%
    23:00 +15°C° 0 mm 1 m/s 758 mmHg 40%
    Arată mai mult